Find Starlink 31633

NORAD ID: 59331 Int'l Des: 2024-057 Owner: SPXS Country: US Constellation: starlink operational
LEOCIRCULAR

当前视图

正在加载3D地球...

About Starlink 31633

Starlink 31633 (NORAD 59331) is a starlink constellation satellite (v2 mini) launched Mar 25, 2024 by SPXS of US. It operates in LEO, CIRCULAR orbit with a mass of 730.00 kg.

关于 Starlink 31633

正在加载描述...

即将过境

Passes for default location (London). Set your location on the main map for personalized predictions.

高度历史

Loading altitude history...

两行轨道根数

1 59331U 24057M 26173.74436642 .00000394 00000-0 23849-4 0 9990
2 59331 43.0022 313.9653 0001254 261.5815 98.4895 15.27576327125909
Epoch: Jun 22, 2026 • Age: 15 hours

当前状态

高度 494.4 km
速度 7.62 km/s
星下点 -40.32°S, 147.42°E
发射日期 Mar 25, 2024
运行时间 2.2 years
类型 internet

技术详情

分类 Payload
质量 730.00 kg
干质量 700.00 kg
总质量 730.00 kg
长度 0.30 m
直径 4.10 m
跨度 29.00 m
形状 Box + pan
制造商 SPXS
平台类型 Starlink V2M
阶段状态 In Orbit
所有者/国家 SPXS/US

Most Searched